Weather Roundup
Issued by NWS

Home | Current Version | Previous Version | Graphics & Text | Print | Product List | Glossary Off
Versions: 1 2 3 4 5 6 7 8 9 10 11 12 13 14 15 16 17 18 19 20 21 22 23 24 25 26 27 28 29 30 31 32 33 34 35 36 37 38 39 40 41 42 43 44 45 46 47 48 49 50

000
NZUS93 KARX 171959
HRRWXR

CURRENT HOURLY OBSERVATIONS ACROSS
MUCH OF THE UPPER MISSISSIPPI VALLEY
NATIONAL WEATHER SERVICE LA CROSSE WI
300 PM CDT THU AUG 17 2017


...SOUTHEAST MINNESOTA...


CITY           SKY/WX    TMP DP  RH WIND       PRES   REMARKS
ROCHESTER      CLOUDY    69  64  84 NW23G33   29.72S
ROCHESTER/MAYO CLOUDY    68  62  79 W17G29    29.71R
WINONA         CLOUDY    70  61  73 NW16G22   29.67R
AUSTIN         CLOUDY    70  63  78 W14G26    29.75S
ALBERT LEA     CLOUDY    73  66  78 W16G24    29.77S
DODGE CENTER   PTSUNNY   70  63  78 NW13G25   29.74R
PRESTON        CLOUDY    67  63  84 NW17G29   29.72S
OWATONNA       MOSUNNY   72  66  83 W20G29    29.75S
FARIBAULT      PTSUNNY   73  66  78 W16       29.74S
$$

...ELSEWHERE IN MINNESOTA...


CITY           SKY/WX    TMP DP  RH WIND       PRES   REMARKS
MINNEAPOLIS    CLOUDY    72  61  68 NW18G24   29.72R
INTNL FALLS    CLOUDY    65  59  81 N9        29.79R
DULUTH         LGT RAIN  62  62 100 N14G20    29.68R FOG
RED WING       CLOUDY    70  61  73 NW14G23   29.68S
REDWOOD FALLS  CLOUDY    70  62  76 NW15      29.82S
MANKATO        CLOUDY    72  65  78 W18       29.78S
WORTHINGTON    MOSUNNY   76  63  64 NW17G25   29.87R
FAIRMONT       CLOUDY    71  63  75 NW20      29.83R
$$

...SOUTHWEST WISCONSIN...


CITY           SKY/WX    TMP DP  RH WIND       PRES   REMARKS
LA CROSSE      CLOUDY    76  65  68 W21       29.64R
PRAIRIE DU CHI CLOUDY    74  62  67 SW18G26   29.69F
BOSCOBEL       CLOUDY    74  64  71 SW16G25   29.68S
LONE ROCK      NOT AVBL
PLATTEVILLE    CLOUDY    72  69  90 W17G24    29.73R
FORT MC COY    CLOUDY    73  64  75 W14G22    29.63S
MAUSTON-NEW LI PTCLDY    74  67  79 W16G23    29.61F
VIROQUA        CLOUDY    68  67  94 W14G21    29.68S
WIS DELLS      CLOUDY    72  64  75 W20       29.64S
$$

...ELSEWHERE IN WISCONSIN...


CITY           SKY/WX    TMP DP  RH WIND       PRES   REMARKS
MILWAUKEE      MOSUNNY   81  64  56 SW22G30   29.66F
MADISON        PTSUNNY   74  66  76 SW13G25   29.65F
GREEN BAY      CLOUDY    76  66  71 SW12G20   29.57F
EAU CLAIRE     NOT AVBL
BLACK RVR FLS  CLOUDY    75  66  73 W18G24    29.61R
MEDFORD        CLOUDY    69  65  89 W14G23    29.55R FOG
WAUSAU         CLOUDY    68  67  96 SW9       29.53S
WIS RAPIDS     LGT RAIN  73  67  81 W13G20    29.60R
MARSHFIELD     PTSUNNY   72  64  76 W17G25    29.56R
RICE LAKE      CLOUDY    65  61  87 W12G23    29.65R
$$

...NORTHEAST IOWA...


CITY           SKY/WX    TMP DP  RH WIND       PRES   REMARKS
WATERLOO       CLOUDY    76  61  59 W16G26    29.77R
DUBUQUE        CLOUDY    73  64  73 W18G26    29.74S
DECORAH        CLOUDY    70  64  83 W10G26    29.71F
MASON CITY     PTSUNNY   74  63  68 NW21      29.81S
CHARLES CITY   CLOUDY    72  64  78 W16G29    29.78R
OELWEIN        CLOUDY    73  64  73 W21G29    29.76S
$$

...ELSEWHERE IN IOWA...


CITY           SKY/WX    TMP DP  RH WIND       PRES   REMARKS
DES MOINES     PTSUNNY   82  62  50 W16       29.84S
IOWA CITY      PTSUNNY   79  65  62 W16G28    29.82R
FORT DODGE     CLOUDY    73  63  68 W13G20    29.86S
MARSHALLTOWN   CLOUDY    76  65  68 W18G24    29.81S
CEDAR RAPIDS   CLOUDY    75  65  70 W20       29.79R
$$

...NORTHERN ILLINOIS...


CITY           SKY/WX    TMP DP  RH WIND       PRES   REMARKS
CHICAGO-OHARE  PTSUNNY   82  65  56 W22G29    29.72S
CHICAGO-MIDWAY PTSUNNY   82  66  58 SW22G28   29.73F
MOLINE         MOSUNNY   84  64  50 W17G29    29.77F
ROCKFORD       PTSUNNY   80  65  59 SW15G28   29.73F
PEORIA         MOSUNNY   85  66  53 W14G26    29.80S
$$

NOTE: "FAIR" INDICATES FEW OR NO CLOUDS BELOW 12,000 FEET WITH NO
SIGNIFICANT WEATHER AND/OR OBSTRUCTIONS TO VISIBILITY. WIND
SPEEDS ARE IN MILES-PER-HOUR.




USA.gov is the U.S. government's official web portal to all federal, state and local government web resources and services.